Location: Artiguedieu
(43.5000°N, 0.5454°E)
Time: 22:53:01
(UTC+00:00)

Transit 2A Rocket - Pass Details

Date: 04 August 2021
Orbit: 586 x 916 km, 66.7° (Epoch: 19 September)

Event Time Altitude Azimuth Distance (km) Brightness Sun altitude
Rises 22:03:28 0° 327° (NNW) 3,294 9.7 -23.5°
Reaches altitude 10° 22:05:49 10° 327° (NNW) 2,409 8.7 -23.7°
Maximum altitude 22:11:25 81° 242° (WSW) 877 5.2 -24.3°
Enters shadow 22:12:33 60° 167° (SSE) 993 5.2 -24.4°
Drops below altitude 10° 22:17:25 10° 155° (SSE) 2,565 - -24.8°
Sets 22:19:58 0° 154° (SSE) 3,522 - -25.0°
